| time (UTC) | temp F | wind direction | speed MPH | gust MPH | rain 1hr in | rain 24hr in | rain mn in | humidity % | barometer mb |
| 20260504050439 | 55 | 37 | 0.0 | 1.0 | 0.00 | 0.00 | 0.00 | 40 | 1142.5 |
| 20260504045936 | 54 | 61 | 0.0 | 0.0 | 0.00 | 0.00 | 0.00 | 40 | 1142.4 |
| 20260504045432 | 55 | 17 | 1.0 | 3.0 | 0.00 | 0.00 | 0.00 | 39 | 1142.3 |
| 20260504044928 | 55 | 42 | 0.0 | 1.0 | 0.00 | 0.00 | 0.00 | 40 | 1142.1 |
| 20260504044426 | 56 | 50 | 0.0 | 3.0 | 0.00 | 0.00 | 0.00 | 42 | 1141.7 |
| 20260504043923 | 56 | 27 | 1.0 | 3.0 | 0.00 | 0.00 | 0.00 | 42 | 1141.6 |
| 20260504043420 | 57 | 26 | 3.0 | 5.0 | 0.00 | 0.00 | 0.00 | 41 | 1141.6 |
| 20260504042917 | 58 | 9 | 0.0 | 2.0 | 0.00 | 0.00 | 0.00 | 39 | 1141.7 |
| 20260504042414 | 59 | 37 | 1.0 | 2.0 | 0.00 | 0.00 | 0.00 | 38 | 1141.4 |
| 20260504041910 | 58 | 41 | 0.0 | 2.0 | 0.00 | 0.00 | 0.00 | 38 | 1141.4 |
| 20260504041406 | 58 | 36 | 0.0 | 1.0 | 0.00 | 0.00 | 0.00 | 38 | 1141.1 |
| 20260504040903 | 59 | 24 | 0.0 | 1.0 | 0.00 | 0.00 | 0.00 | 37 | 1141.0 |
| 20260504040400 | 58 | 12 | 0.0 | 1.0 | 0.00 | 0.00 | 0.00 | 37 | 1140.9 |
| 20260504035856 | 59 | 43 | 0.0 | 1.0 | 0.00 | 0.00 | 0.00 | 36 | 1141.0 |
| 20260504035354 | 59 | 19 | 0.0 | 1.0 | 0.00 | 0.00 | 0.00 | 36 | 1140.8 |
| 20260504034850 | 59 | 36 | 0.0 | 1.0 | 0.00 | 0.00 | 0.00 | 37 | 1140.8 |
| 20260504034348 | 59 | 59 | 0.0 | 0.0 | 0.00 | 0.00 | 0.00 | 37 | 1140.8 |
| 20260504033844 | 59 | 40 | 0.0 | 1.0 | 0.00 | 0.00 | 0.00 | 38 | 1140.5 |
| 20260504033343 | 59 | 33 | 0.0 | 2.0 | 0.00 | 0.00 | 0.00 | 37 | 1140.4 |
| 20260504032839 | 60 | 42 | 0.0 | 1.0 | 0.00 | 0.00 | 0.00 | 37 | 1140.2 |
| 20260504032336 | 60 | 31 | 0.0 | 1.0 | 0.00 | 0.00 | 0.00 | 37 | 1140.0 |
| 20260504031833 | 60 | 31 | 0.0 | 2.0 | 0.00 | 0.00 | 0.00 | 37 | 1140.1 |
| 20260504031330 | 59 | 39 | 0.0 | 1.0 | 0.00 | 0.00 | 0.00 | 38 | 1140.2 |
| 20260504030826 | 60 | 33 | 0.0 | 1.0 | 0.00 | 0.00 | 0.00 | 38 | 1139.9 |
| 20260504030324 | 60 | 35 | 0.0 | 2.0 | 0.00 | 0.00 | 0.00 | 38 | 1139.9 |
| 20260504025820 | 60 | 66 | 0.0 | 0.0 | 0.00 | 0.00 | 0.00 | 37 | 1139.6 |
| 20260504025317 | 61 | 56 | 0.0 | 1.0 | 0.00 | 0.00 | 0.00 | 37 | 1139.4 |
| 20260504024814 | 61 | 3 | 0.0 | 0.0 | 0.00 | 0.00 | 0.00 | 36 | 1139.6 |
| 20260504024310 | 62 | 64 | 0.0 | 0.0 | 0.00 | 0.00 | 0.00 | 33 | 1139.4 |
| 20260504023807 | 62 | 72 | 0.0 | 0.0 | 0.00 | 0.00 | 0.00 | 32 | 1139.4 |
| 20260504023303 | 62 | 44 | 0.0 | 1.0 | 0.00 | 0.00 | 0.00 | 32 | 1139.3 |
| 20260504022759 | 63 | 38 | 0.0 | 0.0 | 0.00 | 0.00 | 0.00 | 31 | 1139.4 |
| 20260504022256 | 64 | 13 | 0.0 | 0.0 | 0.00 | 0.00 | 0.00 | 29 | 1139.1 |
| 20260504021753 | 64 | 42 | 0.0 | 0.0 | 0.00 | 0.00 | 0.00 | 27 | 1139.2 |
| 20260504021250 | 66 | 356 | 0.0 | 0.0 | 0.00 | 0.00 | 0.00 | 26 | 1139.4 |
| 20260504020747 | 66 | 30 | 0.0 | 0.0 | 0.00 | 0.00 | 0.00 | 25 | 1139.2 |
| 20260504020243 | 66 | 355 | 0.0 | 0.0 | 0.00 | 0.00 | 0.00 | 25 | 1139.5 |
| 20260504015739 | 67 | 354 | 0.0 | 0.0 | 0.00 | 0.00 | 0.00 | 25 | 1139.3 |
| 20260504015236 | 67 | 356 | 0.0 | 0.0 | 0.00 | 0.00 | 0.00 | 25 | 1139.4 |
| 20260504014732 | 68 | 4 | 0.0 | 0.0 | 0.00 | 0.00 | 0.00 | 24 | 1139.3 |
| 20260504014229 | 68 | 39 | 0.0 | 0.0 | 0.00 | 0.00 | 0.00 | 24 | 1139.5 |
| 20260504013726 | 69 | 344 | 0.0 | 0.0 | 0.00 | 0.00 | 0.00 | 23 | 1139.4 |
| 20260504013224 | 69 | 359 | 0.0 | 1.0 | 0.00 | 0.00 | 0.00 | 23 | 1139.5 |
| 20260504012720 | 70 | 333 | 0.0 | 0.0 | 0.00 | 0.00 | 0.00 | 23 | 1139.5 |
| 20260504012218 | 70 | 352 | 0.0 | 1.0 | 0.00 | 0.00 | 0.00 | 22 | 1139.6 |
| 20260504011715 | 71 | 357 | 0.0 | 0.0 | 0.00 | 0.00 | 0.00 | 22 | 1139.3 |
| 20260504011212 | 71 | 357 | 0.0 | 0.0 | 0.00 | 0.00 | 0.00 | 22 | 1139.3 |
| 20260504010708 | 71 | 350 | 0.0 | 0.0 | 0.00 | 0.00 | 0.00 | 22 | 1139.3 |
| 20260504010203 | 71 | 22 | 0.0 | 1.0 | 0.00 | 0.00 | 0.00 | 22 | 1139.6 |
| 20260504005700 | 71 | 350 | 0.0 | 0.0 | 0.00 | 0.00 | 0.00 | 23 | 1139.4 |
| 20260504005157 | 71 | 6 | 0.0 | 2.0 | 0.00 | 0.00 | 0.00 | 22 | 1139.6 |
| 20260504004655 | 71 | 347 | 0.0 | 1.0 | 0.00 | 0.00 | 0.00 | 22 | 1139.8 |
| 20260504004152 | 72 | 332 | 0.0 | 1.0 | 0.00 | 0.00 | 0.00 | 22 | 1139.6 |
| 20260504003648 | 72 | 5 | 0.0 | 1.0 | 0.00 | 0.00 | 0.00 | 22 | 1139.8 |
| 20260504003145 | 72 | 355 | 0.0 | 1.0 | 0.00 | 0.00 | 0.00 | 22 | 1139.8 |
| 20260504002642 | 72 | 340 | 0.0 | 0.0 | 0.00 | 0.00 | 0.00 | 22 | 1140.0 |
| 20260504002139 | 72 | 343 | 0.0 | 2.0 | 0.00 | 0.00 | 0.00 | 22 | 1140.0 |
| 20260504001637 | 73 | 332 | 0.0 | 1.0 | 0.00 | 0.00 | 0.00 | 22 | 1140.1 |
| 20260504001133 | 73 | 330 | 0.0 | 3.0 | 0.00 | 0.00 | 0.00 | 21 | 1140.1 |
| 20260504000630 | 73 | 335 | 0.0 | 0.0 | 0.00 | 0.00 | 0.00 | 22 | 1140.1 |
| 20260504000128 | 73 | 335 | 0.0 | 0.0 | 0.00 | 0.00 | 0.00 | 21 | 1140.0 |
| 20260503235626 | 73 | 324 | 0.0 | 0.0 | 0.00 | 0.00 | 0.00 | 21 | 1140.0 |
| 20260503235122 | 73 | 7 | 0.0 | 1.0 | 0.00 | 0.00 | 0.00 | 22 | 1140.1 |
| 20260503234620 | 73 | 355 | 0.0 | 1.0 | 0.00 | 0.00 | 0.00 | 21 | 1140.0 |
| 20260503234118 | 73 | 316 | 0.0 | 0.0 | 0.00 | 0.00 | 0.00 | 21 | 1140.2 |
| 20260503233615 | 73 | 345 | 0.0 | 1.0 | 0.00 | 0.00 | 0.00 | 21 | 1140.0 |
| 20260503233110 | 73 | 350 | 0.0 | 3.0 | 0.00 | 0.00 | 0.00 | 21 | 1140.1 |
| 20260503232608 | 73 | 351 | 0.0 | 2.0 | 0.00 | 0.00 | 0.00 | 20 | 1140.0 |
| 20260503232105 | 73 | 336 | 0.0 | 0.0 | 0.00 | 0.00 | 0.00 | 21 | 1140.1 |
| 20260503231603 | 72 | 352 | 0.0 | 1.0 | 0.00 | 0.00 | 0.00 | 21 | 1140.1 |
| 20260503231059 | 73 | 315 | 0.0 | 1.0 | 0.00 | 0.00 | 0.00 | 20 | 1140.2 |
| 20260503230555 | 74 | 308 | 0.0 | 2.0 | 0.00 | 0.00 | 0.00 | 20 | 1140.4 |
| 20260503230053 | 73 | 321 | 0.0 | 2.0 | 0.00 | 0.00 | 0.00 | 20 | 1140.4 |
| 20260503225550 | 74 | 335 | 0.0 | 1.0 | 0.00 | 0.00 | 0.00 | 20 | 1140.5 |
| 20260503225045 | 73 | 335 | 0.0 | 3.0 | 0.00 | 0.00 | 0.00 | 21 | 1140.3 |
| 20260503224543 | 73 | 324 | 0.0 | 0.0 | 0.00 | 0.00 | 0.00 | 20 | 1140.5 |
| 20260503224040 | 73 | 8 | 0.0 | 1.0 | 0.00 | 0.00 | 0.00 | 21 | 1140.5 |
| 20260503223539 | 74 | 338 | 0.0 | 0.0 | 0.00 | 0.00 | 0.00 | 20 | 1140.6 |
| 20260503223033 | 74 | 300 | 0.0 | 2.0 | 0.00 | 0.00 | 0.00 | 20 | 1140.5 |
| 20260503222532 | 74 | 302 | 1.0 | 3.0 | 0.00 | 0.00 | 0.00 | 20 | 1140.5 |
| 20260503222030 | 74 | 262 | 0.0 | 0.0 | 0.00 | 0.00 | 0.00 | 20 | 1140.9 |
| 20260503221528 | 73 | 325 | 0.0 | 2.0 | 0.00 | 0.00 | 0.00 | 20 | 1140.6 |
| 20260503221025 | 73 | 300 | 1.0 | 2.0 | 0.00 | 0.00 | 0.00 | 20 | 1140.9 |
| 20260503220521 | 73 | 6 | 0.0 | 2.0 | 0.00 | 0.00 | 0.00 | 21 | 1141.0 |
| 20260503220018 | 75 | 321 | 0.0 | 1.0 | 0.00 | 0.00 | 0.00 | 20 | 1141.0 |
| 20260503215515 | 73 | 302 | 0.0 | 1.0 | 0.00 | 0.00 | 0.00 | 21 | 1141.1 |
| 20260503215012 | 73 | 290 | 0.0 | 2.0 | 0.00 | 0.00 | 0.00 | 21 | 1141.0 |
| 20260503214510 | 72 | 284 | 0.0 | 0.0 | 0.00 | 0.00 | 0.00 | 22 | 1141.3 |
| 20260503214007 | 73 | 301 | 0.0 | 0.0 | 0.00 | 0.00 | 0.00 | 21 | 1141.3 |
| 20260503213505 | 73 | 332 | 0.0 | 2.0 | 0.00 | 0.00 | 0.00 | 21 | 1141.5 |
| 20260503213001 | 73 | 356 | 0.0 | 0.0 | 0.00 | 0.00 | 0.00 | 22 | 1141.2 |
| 20260503212459 | 72 | 307 | 0.0 | 0.0 | 0.00 | 0.00 | 0.00 | 21 | 1141.2 |
| 20260503211956 | 71 | 286 | 0.0 | 1.0 | 0.00 | 0.00 | 0.00 | 21 | 1141.4 |
| 20260503211453 | 73 | 352 | 1.0 | 2.0 | 0.00 | 0.00 | 0.00 | 21 | 1141.6 |
| 20260503210949 | 72 | 352 | 0.0 | 1.0 | 0.00 | 0.00 | 0.00 | 21 | 1141.6 |
| 20260503210445 | 72 | 320 | 1.0 | 1.0 | 0.00 | 0.00 | 0.00 | 21 | 1141.6 |
| 20260503205940 | 72 | 318 | 0.0 | 0.0 | 0.00 | 0.00 | 0.00 | 22 | 1142.1 |
| 20260503205437 | 73 | 324 | 0.0 | 1.0 | 0.00 | 0.00 | 0.00 | 21 | 1142.2 |
| 20260503204933 | 72 | 340 | 0.0 | 1.0 | 0.00 | 0.00 | 0.00 | 22 | 1142.0 |
| 20260503204431 | 72 | 328 | 0.0 | 1.0 | 0.00 | 0.00 | 0.00 | 22 | 1142.0 |
| 20260503203928 | 72 | 316 | 1.0 | 2.0 | 0.00 | 0.00 | 0.00 | 22 | 1142.1 |
| 20260503203425 | 72 | 301 | 0.0 | 2.0 | 0.00 | 0.00 | 0.00 | 21 | 1142.2 |
| 20260503202922 | 71 | 242 | 0.0 | 0.0 | 0.00 | 0.00 | 0.00 | 23 | 1142.0 |
| 20260503202420 | 71 | 302 | 1.0 | 3.0 | 0.00 | 0.00 | 0.00 | 23 | 1142.2 |
| 20260503201918 | 71 | 303 | 1.0 | 2.0 | 0.00 | 0.00 | 0.00 | 20 | 1142.2 |
| 20260503201415 | 71 | 0 | 0.0 | 1.0 | 0.00 | 0.00 | 0.00 | 23 | 1142.5 |
| 20260503200913 | 71 | 356 | 0.0 | 1.0 | 0.00 | 0.00 | 0.00 | 22 | 1142.5 |
| 20260503200409 | 71 | 339 | 1.0 | 3.0 | 0.00 | 0.00 | 0.00 | 22 | 1142.6 |
| 20260503195906 | 70 | 3 | 0.0 | 1.0 | 0.00 | 0.00 | 0.00 | 22 | 1142.5 |
| 20260503195403 | 71 | 340 | 0.0 | 1.0 | 0.00 | 0.00 | 0.00 | 23 | 1143.1 |
| 20260503194859 | 71 | 353 | 0.0 | 1.0 | 0.00 | 0.00 | 0.00 | 23 | 1143.0 |
| 20260503194356 | 71 | 296 | 0.0 | 0.0 | 0.00 | 0.00 | 0.00 | 24 | 1143.0 |
| 20260503193852 | 72 | 310 | 0.0 | 3.0 | 0.00 | 0.00 | 0.00 | 22 | 1142.8 |
| 20260503193347 | 69 | 322 | 0.0 | 0.0 | 0.00 | 0.00 | 0.00 | 24 | 1142.8 |
| 20260503192843 | 69 | 308 | 0.0 | 2.0 | 0.00 | 0.00 | 0.00 | 24 | 1143.2 |
| 20260503192339 | 70 | 286 | 0.0 | 2.0 | 0.00 | 0.00 | 0.00 | 24 | 1143.3 |
| 20260503191836 | 69 | 287 | 0.0 | 0.0 | 0.00 | 0.00 | 0.00 | 24 | 1143.3 |
| 20260503191333 | 70 | 312 | 0.0 | 0.0 | 0.00 | 0.00 | 0.00 | 23 | 1143.4 |
| 20260503190829 | 70 | 335 | 0.0 | 2.0 | 0.00 | 0.00 | 0.00 | 23 | 1143.4 |
| 20260503190327 | 70 | 329 | 0.0 | 3.0 | 0.00 | 0.00 | 0.00 | 22 | 1143.6 |
| 20260503185824 | 70 | 289 | 0.0 | 3.0 | 0.00 | 0.00 | 0.00 | 22 | 1143.6 |
| 20260503185319 | 69 | 292 | 1.0 | 2.0 | 0.00 | 0.00 | 0.00 | 22 | 1143.6 |
| 20260503184814 | 70 | 291 | 0.0 | 3.0 | 0.00 | 0.00 | 0.00 | 22 | 1143.6 |
| 20260503184310 | 70 | 302 | 0.0 | 1.0 | 0.00 | 0.00 | 0.00 | 22 | 1143.4 |
| 20260503183806 | 69 | 307 | 0.0 | 0.0 | 0.00 | 0.00 | 0.00 | 23 | 1143.5 |
| 20260503183304 | 69 | 297 | 0.0 | 2.0 | 0.00 | 0.00 | 0.00 | 24 | 1143.5 |
| 20260503182801 | 70 | 299 | 0.0 | 0.0 | 0.00 | 0.00 | 0.00 | 23 | 1143.8 |
| 20260503182300 | 70 | 354 | 0.0 | 0.0 | 0.00 | 0.00 | 0.00 | 24 | 1143.7 |
| 20260503181756 | 69 | 286 | 0.0 | 1.0 | 0.00 | 0.00 | 0.00 | 24 | 1143.7 |
| 20260503181254 | 69 | 315 | 0.0 | 0.0 | 0.00 | 0.00 | 0.00 | 24 | 1144.2 |
| 20260503180750 | 69 | 338 | 0.0 | 0.0 | 0.00 | 0.00 | 0.00 | 24 | 1144.2 |
| 20260503180248 | 69 | 319 | 1.0 | 2.0 | 0.00 | 0.00 | 0.00 | 24 | 1144.2 |
| 20260503175744 | 69 | 342 | 0.0 | 0.0 | 0.00 | 0.00 | 0.00 | 24 | 1144.2 |
| 20260503175243 | 68 | 271 | 0.0 | 0.0 | 0.00 | 0.00 | 0.00 | 24 | 1144.2 |
| 20260503174738 | 68 | 269 | 0.0 | 2.0 | 0.00 | 0.00 | 0.00 | 25 | 1144.4 |
| 20260503174236 | 68 | 357 | 0.0 | 0.0 | 0.00 | 0.00 | 0.00 | 25 | 1144.3 |
| 20260503173730 | 68 | 349 | 0.0 | 1.0 | 0.00 | 0.00 | 0.00 | 24 | 1144.5 |
| 20260503173227 | 68 | 279 | 0.0 | 0.0 | 0.00 | 0.00 | 0.00 | 24 | 1144.6 |
| 20260503172724 | 68 | 357 | 0.0 | 1.0 | 0.00 | 0.00 | 0.00 | 24 | 1144.5 |
| 20260503172221 | 68 | 306 | 0.0 | 2.0 | 0.00 | 0.00 | 0.00 | 24 | 1144.7 |
| 20260503171717 | 68 | 330 | 0.0 | 2.0 | 0.00 | 0.00 | 0.00 | 25 | 1144.4 |
| 20260503171215 | 68 | 309 | 0.0 | 1.0 | 0.00 | 0.00 | 0.00 | 24 | 1144.6 |
| 20260503170712 | 68 | 310 | 0.0 | 0.0 | 0.00 | 0.00 | 0.00 | 25 | 1144.6 |
| 20260503170209 | 68 | 294 | 1.0 | 2.0 | 0.00 | 0.00 | 0.00 | 25 | 1144.6 |
| 20260503160130 | 61 | 259 | 0.0 | 0.0 | 0.00 | 0.00 | 0.00 | 45 | 1144.6 |
| 20260503150600 | 57 | 279 | 0.0 | 0.0 | 0.00 | 0.00 | 0.00 | 50 | 1145.1 |
| 20260503130949 | 42 | 334 | 0.0 | 0.0 | 0.00 | 0.00 | 0.00 | 82 | 1145.7 |
| 20260503130447 | 40 | 334 | 0.0 | 0.0 | 0.00 | 0.00 | 0.00 | 83 | 1145.4 |
| 20260503110344 | 37 | 30 | 0.0 | 0.0 | 0.00 | 0.00 | 0.00 | 87 | 1146.2 |
| 20260503090235 | 37 | 34 | 0.0 | 0.0 | 0.00 | 0.00 | 0.00 | 84 | 1146.9 |
| 20260503081202 | 38 | 17 | 0.0 | 0.0 | 0.00 | 0.00 | 0.00 | 82 | 1147.4 |
| 20260503080658 | 37 | 15 | 0.0 | 0.0 | 0.00 | 0.00 | 0.00 | 84 | 1147.4 |
| 20260503080155 | 36 | 23 | 0.0 | 0.0 | 0.00 | 0.00 | 0.00 | 83 | 1147.6 |
| 20260503072632 | 37 | 351 | 0.0 | 0.0 | 0.00 | 0.00 | 0.00 | 82 | 1147.3 |
| 20260503072129 | 37 | 353 | 0.0 | 0.0 | 0.00 | 0.00 | 0.00 | 82 | 1147.5 |
| 20260503071626 | 37 | 7 | 0.0 | 0.0 | 0.00 | 0.00 | 0.00 | 82 | 1147.5 |
| 20260503071122 | 39 | 1 | 0.0 | 0.0 | 0.00 | 0.00 | 0.00 | 79 | 1147.3 |
| 20260503070619 | 44 | 34 | 0.0 | 0.0 | 0.00 | 0.00 | 0.00 | 73 | 1147.2 |
| 20260503070118 | 39 | 34 | 0.0 | 0.0 | 0.00 | 0.00 | 0.00 | 80 | 1147.4 |